Starlink 30813

operational
NORAD ID: 58213 Int'l Des: 2023-170 Owner: SPXS Country: US Constellation: starlink
LEOCIRCULAR

关于 Starlink 30813

正在加载描述...

实时位置

正在加载3D地球...

即将过境

高度历史

Altitude vs Time

uPlot chart will show altitude changes over time

两行轨道根数

1 58213U 23170H 25257.21797898 .00000716 00000-0 68068-4 0 9990
2 58213 43.0030 74.8098 0001203 262.6755 97.3951 15.02535252103734
Epoch: Sep 14, 2025 • Age: 33 hours

当前状态

高度 568.8 km
速度 7.58 km/s
星下点 -36.05°S, 90.45°E
发射日期 Nov 4, 2023
运行时间 1.8 years
类型 internet

技术详情

分类 Payload
质量 730.00 kg
干质量 700.00 kg
总质量 730.00 kg
长度 0.30 m
直径 4.10 m
跨度 29.00 m
形状 Box + pan
制造商 SPXS
平台类型 Starlink V2M
阶段状态 In Orbit
所有者/国家 SPXS/US

大型星座

Loading constellations...